Home > Weather > Sterling Heights > Past weeks

Flag for USA Past Weather in Sterling Heights, Michigan, USA — Yesterday and Last 2 Weeks

Now
80 °F

Broken clouds.


Feels Like: 82 °F
Forecast: 70 / 86 °F
Wind: 8 mph from Southeast

Location: Selfridge Air National Guard Base

Current Time: May 27, 2016 at 8:07:29 PM

Latest Report: May 27, 2016 at 6:58 PM


Visibility: 10 mi

Pressure: 29.94 "Hg

Humidity: 59%

Dew Point: 64 °F

Location of Sterling HeightsLocation

Past Weather in Sterling Heights — Graph

°F

Sterling Heights Temperature Yesterday

Maximum temperature yesterday: 82 °F (at 3:58 PM)
Minimum temperature yesterday: 66 °F (at 1:58 AM)
Average temperature yesterday: 74 °F

High & Low Weather Summary for the Past Weeks

 TemperatureHumidityPressure
High85 °F (May 25, 1:58 PM)100% (May 12, 8:58 PM)30.27 "Hg (May 12, 8:58 PM)
Low35 °F (May 15, 6:58 AM)28% (May 22, 4:58 PM)29.52 "Hg (May 14, 6:04 AM)
Average59 °F63%30.02 "Hg
* Reported May 12 5:58 PM — May 27 5:58 PM, Sterling Heights, Weather by CustomWeather, © 2016

Note: Actual official high and low records may vary slightly from our data, if they occured in-between our weather recording intervals... More about our weather records

Advertising

Sterling Heights Weather History for the Previous 24 Hours

Scroll right to see more
 ConditionsComfort  
Time TempWeatherWind HumidityBarometerVisibility
5:58 PM
Fri, May 27
79 °FPartly sunny.7 mph61%29.95 "Hg10 mi
4:58 PM81 °FPartly sunny.10 mph57%29.96 "Hg10 mi
3:58 PM81 °FBroken clouds.14 mph59%29.96 "Hg10 mi
2:58 PM81 °FCloudy.16 mph61%29.97 "Hg10 mi
1:58 PM82 °FBroken clouds.14 mph62%29.98 "Hg10 mi
12:58 PM81 °FBroken clouds.12 mph66%29.99 "Hg10 mi
11:58 AM80 °FBroken clouds.9 mph68%29.98 "Hg10 mi
10:58 AM79 °FPartly sunny.8 mph69%29.97 "Hg10 mi
9:58 AM79 °FScattered clouds.1 mph65%29.96 "Hg10 mi
8:58 AM76 °FScattered clouds.6 mph71%29.96 "Hg10 mi
7:58 AM72 °FScattered clouds.7 mph79%29.97 "Hg10 mi
6:58 AM69 °FSunny.6 mph85%29.96 "Hg10 mi
5:58 AM68 °FClear.7 mph88%29.95 "Hg10 mi
4:58 AM69 °FClear.6 mph87%29.93 "Hg10 mi
3:58 AM69 °FClear.5 mph90%29.92 "Hg10 mi
2:58 AM65 °FClear.6 mph99%29.92 "Hg10 mi
1:58 AM67 °FPassing clouds.7 mph94%29.91 "Hg10 mi
12:58 AM68 °FClear.6 mph93%29.91 "Hg10 mi
11:58 PM
Thu, May 26
68 °FClear.6 mph90%29.93 "Hg10 mi
10:58 PM70 °FOvercast.8 mph85%29.92 "Hg10 mi
9:58 PM72 °FPassing clouds.9 mph77%29.89 "Hg10 mi
8:58 PM74 °FBroken clouds.10 mph71%29.87 "Hg10 mi
Weather by CustomWeather, © 2016

See weather overviewHow to use our weather pages